ELECTRON KICK STAGE R/B, 68293

Orbit data source: Space-Track

ELECTRON KICK STAGE R/B, 68293 is space debris in LEO originally from a launch on Fri, 20 Mar 2026 UTC launched from the Rocket Lab Launch Complex (RLLC). Debris objects in space refer to the collection of defunct objects orbiting the Earth. Examples of debris include non-operational satellites, rocket bodies, and fragments generated from explosions, collisions, or faulty payload assembly.

Loading next visibility...
Identifier
68293, 2026-056C
Orbit
LEO
Country
Flag of USUS
Related business
Manufacturer
Rocket Lab
Mission
Spacecraft
Bus & Motor
KICK STAGE, CURIE
Mass
~50 kg wet, ~50 kg dry
Launch date (UTC)
2026-03-20 (3 months ago)
Launch vehicle
Unknown
Launch site
Rocket Lab Launch Complex (RLLC)
Object type
Payload
Rocket body
Debris
Shape & HBR
Unknown shape, 0.6 m
Radar Cross Section
Medium (>0.1 m² and <1 m²)

Expand to show TLE details & history
Last TLE update: 2 days ago

TLE from 2 days ago
0 ELECTRON KICK STAGE R/B
1 68293U 26056C   26170.11987477  .00059493  00000-0  71416-3 0  9999
2 68293  50.2885 309.8169 0125999  21.1022 339.5083 15.51161522 13988
Epoch: 2026-06-19T02:52Z
TLE epoch observation values (Epoch: 2026-06-19T02:52:37.180Z)
Latitude
0.00005°
Longitude
-0.69139°
Altitude
333.907 km
Speed
7.755 km/s
True Right ascension
20h 39m 16s
True Declination
0° 00' 00"
Sunlit
Object was in full shadow at epoch
Visualization orbit readout
Latitude
Unknown
Longitude
Unknown
Altitude
Unknown
Speed
Unknown
Apparent Right ascension
Unknown
Apparent Declination
Unknown
Sunlit
N/A
Visualization observer readout
Local Sidereal Time
10:18:00
Azimuth
Unknown
Elevation
Unknown
Doppler factor
Unknown
Orbital elements
Apogee altitude
499.648 km
Perigee altitude
328.485 km
Semi-major axis
6,792.203 km
Eccentricity
0.0126
Inclination
50.2885°
RAAN
309.8169°
Arg. of periapsis
21.1022°
True anomaly
338.99529°
Mean anomaly
339.5083°
Eccentric anomaly
339.25256°
Mean motion
3.87728 °/min
Orbital period
92.85 mins
BSTAR
0.00071416
Loading maneuver chart data...
Computing Atmospheric mass density...
Loading historical data...
Loading historical data...
Loading historical data...
Loading historical data...
Loading historical data...
Loading historical data...
Loading historical data...
Other satellites on launch #56 in the year 2026 (2026-03-20 UTC)

Documentation

Showing up to 5 results
|